• In Spain
  • List of Countries
  • For 7 days
  • Water Temperature
  • Satellite Maps
  • Weather Map
  • Weather Widgets
  • user-avatar
    Login

    Hourly Weather Arbela

    Today, 14 November, Wednesday

    Time Temperature Precipitation Wind Pressure Humidity
    00:00 +18°C° 0 mm 1 mps 727 mmHg 49%
    01:00 +16°C° 0 mm 1 mps 726 mmHg 49%
    02:00 +16°C° 0 mm 1 mps 726 mmHg 49%
    03:00 +16°C° 0 mm 1 mps 726 mmHg 49%
    04:00 +16°C° 0 mm 1 mps 726 mmHg 49%
    05:00 +15°C° 0 mm 2 mps 726 mmHg 50%
    06:00 +15°C° 0 mm 2 mps 725 mmHg 50%
    07:00 +16°C° 0 mm 2 mps 725 mmHg 47%
    08:00 +17°C° 0 mm 2 mps 725 mmHg 44%
    09:00 +18°C° 0 mm 2 mps 725 mmHg 41%
    10:00 +19°C° 0 mm 2 mps 725 mmHg 38%
    11:00 +20°C° 0 mm 2 mps 725 mmHg 35%
    12:00 +21°C° 0 mm 2 mps 725 mmHg 32%
    13:00 +21°C° 0 mm 3 mps 724 mmHg 32%
    14:00 +21°C° 0 mm 3 mps 724 mmHg 32%
    15:00 +22°C° 0 mm 3 mps 724 mmHg 32%
    16:00 +21°C° 0 mm 2 mps 724 mmHg 35%
    17:00 +20°C° 0 mm 2 mps 724 mmHg 39%
    18:00 +20°C° 0 mm 1 mps 724 mmHg 42%
    19:00 +20°C° 0 mm 1 mps 724 mmHg 43%
    20:00 +18°C° 0 mm 2 mps 724 mmHg 44%
    21:00 +18°C° 0 mm 2 mps 724 mmHg 45%
    22:00 +17°C° 0 mm 2 mps 724 mmHg 47%
    23:00 +17°C° 0 mm 3 mps 724 mmHg 49%

    Tomorrow, 15 November, Thursday

    Time Temperature Precipitation Wind Pressure Humidity
    00:00 +16°C° 0 mm 3 mps 725 mmHg 50%
    01:00 +16°C° 0 mm 3 mps 725 mmHg 53%
    02:00 +16°C° 0 mm 2 mps 725 mmHg 55%
    03:00 +16°C° 0 mm 2 mps 725 mmHg 57%
    04:00 +15°C° 0 mm 2 mps 725 mmHg 57%
    05:00 +15°C° 0 mm 2 mps 725 mmHg 58%
    06:00 +15°C° 0 mm 2 mps 725 mmHg 58%
    07:00 +16°C° 0 mm 2 mps 726 mmHg 57%
    08:00 +16°C° 0 mm 2 mps 726 mmHg 56%
    09:00 +17°C° 0 mm 3 mps 726 mmHg 54%
    10:00 +17°C° 0 mm 2 mps 726 mmHg 54%
    11:00 +18°C° 0 mm 2 mps 726 mmHg 53%
    12:00 +18°C° 0 mm 2 mps 726 mmHg 52%
    13:00 +18°C° 0 mm 2 mps 726 mmHg 51%
    14:00 +19°C° 0 mm 2 mps 726 mmHg 50%
    15:00 +19°C° 0 mm 2 mps 726 mmHg 49%
    16:00 +19°C° 0 mm 2 mps 726 mmHg 52%
    17:00 +18°C° 0 mm 2 mps 726 mmHg 54%
    18:00 +17°C° 0 mm 2 mps 726 mmHg 56%
    19:00 +17°C° 0 mm 2 mps 726 mmHg 57%
    20:00 +17°C° 0 mm 2 mps 726 mmHg 59%
    21:00 +16°C° 0 mm 2 mps 726 mmHg 60%
    22:00 +16°C° 0.2 mm 2 mps 726 mmHg 61%
    23:00 +16°C° 0.2 mm 2 mps 726 mmHg 62%

    Day after tomorrow, 16 November, Friday

    Time Temperature Precipitation Wind Pressure Humidity
    00:00 +15°C° 0.2 mm 2 mps 726 mmHg 63%
    01:00 +15°C° 0.4 mm 2 mps 726 mmHg 65%
    02:00 +15°C° 0.4 mm 2 mps 726 mmHg 67%
    03:00 +15°C° 0.4 mm 2 mps 726 mmHg 69%
    04:00 +15°C° 0.4 mm 2 mps 726 mmHg 69%
    05:00 +15°C° 0.4 mm 2 mps 726 mmHg 70%
    06:00 +15°C° 0.4 mm 2 mps 727 mmHg 71%
    07:00 +15°C° 0.1 mm 2 mps 727 mmHg 67%
    08:00 +16°C° 0.1 mm 3 mps 727 mmHg 63%
    09:00 +17°C° 0.1 mm 3 mps 728 mmHg 60%
    10:00 +18°C° 0.1 mm 3 mps 728 mmHg 58%
    11:00 +19°C° 0.1 mm 3 mps 728 mmHg 56%
    12:00 +20°C° 0.1 mm 4 mps 727 mmHg 54%
    13:00 +21°C° 0.1 mm 3 mps 727 mmHg 54%
    14:00 +21°C° 0.1 mm 3 mps 727 mmHg 53%
    15:00 +21°C° 0.1 mm 3 mps 727 mmHg 53%
    16:00 +20°C° 0.3 mm 2 mps 727 mmHg 57%
    17:00 +19°C° 0.3 mm 2 mps 727 mmHg 62%
    18:00 +19°C° 0.3 mm 2 mps 727 mmHg 67%
    19:00 +18°C° 0.5 mm 2 mps 728 mmHg 68%
    20:00 +18°C° 0.5 mm 2 mps 728 mmHg 70%
    21:00 +17°C° 0.5 mm 2 mps 728 mmHg 72%
    22:00 +17°C° 0.6 mm 2 mps 728 mmHg 74%
    23:00 +16°C° 0.6 mm 2 mps 728 mmHg 75%

    17 November, Saturday

    Time Temperature Precipitation Wind Pressure Humidity
    00:00 +16°C° 0.6 mm 2 mps 728 mmHg 76%
    01:00 +16°C° 0.5 mm 2 mps 729 mmHg 77%
    02:00 +16°C° 0.5 mm 2 mps 729 mmHg 77%
    03:00 +15°C° 0.5 mm 2 mps 729 mmHg 77%
    04:00 +15°C° 0.4 mm 2 mps 729 mmHg 77%
    05:00 +15°C° 0.4 mm 2 mps 729 mmHg 77%
    06:00 +15°C° 0.4 mm 2 mps 729 mmHg 76%
    07:00 +16°C° 0.1 mm 2 mps 729 mmHg 73%
    08:00 +16°C° 0.1 mm 2 mps 730 mmHg 70%
    09:00 +17°C° 0.1 mm 2 mps 730 mmHg 66%
    10:00 +18°C° 0.2 mm 2 mps 730 mmHg 63%
    11:00 +19°C° 0.2 mm 2 mps 730 mmHg 59%
    12:00 +20°C° 0.2 mm 2 mps 730 mmHg 55%
    13:00 +20°C° 0.3 mm 2 mps 729 mmHg 54%
    14:00 +20°C° 0.3 mm 2 mps 729 mmHg 53%
    15:00 +20°C° 0.3 mm 2 mps 729 mmHg 52%
    16:00 +21°C° 0.1 mm 1 mps 729 mmHg 56%
    17:00 +20°C° 0.1 mm 1 mps 729 mmHg 60%
    18:00 +19°C° 0.1 mm 1 mps 729 mmHg 64%
    19:00 +19°C° 0 mm 1 mps 729 mmHg 65%
    20:00 +18°C° 0 mm 1 mps 729 mmHg 66%
    21:00 +18°C° 0 mm 1 mps 730 mmHg 67%
    22:00 +18°C° 0 mm 1 mps 729 mmHg 68%
    23:00 +16°C° 0 mm 1 mps 729 mmHg 69%

    18 November, Sunday

    Time Temperature Precipitation Wind Pressure Humidity
    00:00 +16°C° 0 mm 1 mps 729 mmHg 69%
    01:00 +16°C° 0 mm 1 mps 729 mmHg 70%
    02:00 +15°C° 0 mm 1 mps 729 mmHg 71%
    03:00 +15°C° 0 mm 1 mps 729 mmHg 72%
    04:00 +15°C° 0 mm 1 mps 729 mmHg 71%
    05:00 +14°C° 0 mm 1 mps 729 mmHg 71%
    06:00 +14°C° 0 mm 1 mps 729 mmHg 71%
    07:00 +15°C° 0 mm 1 mps 729 mmHg 68%
    08:00 +15°C° 0 mm 1 mps 729 mmHg 64%
    09:00 +16°C° 0 mm 1 mps 729 mmHg 61%
    10:00 +18°C° 0.1 mm 1 mps 729 mmHg 58%
    11:00 +17°C° 0.1 mm 2 mps 728 mmHg 54%
    12:00 +18°C° 0.1 mm 2 mps 728 mmHg 51%
    13:00 +18°C° 0.1 mm 3 mps 728 mmHg 47%
    14:00 +18°C° 0.1 mm 3 mps 728 mmHg 43%
    15:00 +18°C° 0.1 mm 3 mps 727 mmHg 40%
    16:00 +18°C° 0 mm 3 mps 727 mmHg 41%
    17:00 +17°C° 0 mm 2 mps 728 mmHg 43%
    18:00 +17°C° 0 mm 2 mps 728 mmHg 45%
    19:00 +16°C° 0 mm 1 mps 728 mmHg 46%
    20:00 +15°C° 0 mm 1 mps 728 mmHg 48%
    21:00 +15°C° 0 mm 1 mps 728 mmHg 49%
    22:00 +15°C° 0 mm 1 mps 728 mmHg 51%
    23:00 +14°C° 0 mm 1 mps 728 mmHg 52%

    19 November, Monday

    Time Temperature Precipitation Wind Pressure Humidity
    00:00 +14°C° 0 mm 1 mps 728 mmHg 53%
    01:00 +13°C° 0 mm 1 mps 728 mmHg 54%
    02:00 +13°C° 0 mm 1 mps 728 mmHg 55%
    03:00 +13°C° 0 mm 1 mps 728 mmHg 57%
    04:00 +12°C° 0 mm 1 mps 728 mmHg 56%
    05:00 +12°C° 0 mm 1 mps 728 mmHg 56%
    06:00 +12°C° 0 mm 1 mps 728 mmHg 56%
    07:00 +13°C° 0 mm 1 mps 729 mmHg 52%
    08:00 +14°C° 0 mm 1 mps 729 mmHg 49%
    09:00 +15°C° 0 mm 2 mps 729 mmHg 45%
    10:00 +15°C° 0 mm 1 mps 729 mmHg 42%
    11:00 +16°C° 0 mm 1 mps 729 mmHg 40%
    12:00 +18°C° 0 mm 1 mps 729 mmHg 37%
    13:00 +18°C° 0 mm 1 mps 728 mmHg 35%
    14:00 +19°C° 0 mm 1 mps 728 mmHg 34%
    15:00 +19°C° 0 mm 1 mps 728 mmHg 32%
    16:00 +18°C° 0 mm 1 mps 728 mmHg 35%
    17:00 +18°C° 0 mm 1 mps 728 mmHg 38%
    18:00 +16°C° 0 mm 1 mps 728 mmHg 41%
    19:00 +16°C° 0 mm 1 mps 728 mmHg 40%
    20:00 +16°C° 0 mm 1 mps 728 mmHg 39%
    21:00 +15°C° 0 mm 1 mps 728 mmHg 38%
    22:00 +15°C° 0 mm 1 mps 728 mmHg 37%
    23:00 +15°C° 0 mm 2 mps 728 mmHg 37%
    Show more